FW3073 Weather Reports


Display with metric or nautical units.
time (UTC)temp
F
wind
direction
speed
MPH
gust
MPH
rain 1hr
in
rain 24hr
in
rain mn
in
humidity
%
barometer
mb
20260831025003 62 244 0.0 1.0 0.00 0.00 0.00 87 1009.7
20260831024003 62 175 0.0 1.0 0.00 0.00 0.00 86 1009.4
20260831023004 62 170 0.0 1.0 0.00 0.00 0.00 86 1009.7
20260831022003 62 168 0.0 1.0 0.00 0.00 0.00 88 1009.7
20260831021003 62 0 0.0 0.0 0.00 0.00 0.00 87 1009.7
20260831020003 62 0 0.0 0.0 0.00 0.00 0.00 86 1009.7
20260831015213 62 0 0.0 0.0 0.00 0.00 0.00 86 1009.7
20260831014003 62 0 0.0 0.0 0.00 0.00 0.00 85 1010.1
20260831013213 62 0 0.0 0.0 0.00 0.00 0.00 87 1010.1
20260831012003 62 90 0.0 1.0 0.00 0.00 0.00 86 1010.1
20260831011003 62 0 0.0 0.0 0.00 0.00 0.00 85 1009.7
20260831010213 63 0 0.0 0.0 0.00 0.00 0.00 85 1009.4
20260831005213 63 0 0.0 0.0 0.00 0.00 0.00 84 1009.7
20260831004003 64 57 0.0 2.0 0.00 0.00 0.00 83 1009.4
20260831003003 64 331 0.0 1.0 0.00 0.00 0.00 81 1009.4
20260831002003 64 323 0.0 2.0 0.00 0.00 0.00 80 1010.1
20260831001003 64 0 0.0 0.0 0.00 0.00 0.00 79 1009.7
20260831000003 65 76 0.0 3.0 0.00 0.00 0.00 80 1010.1
20260830235003 65 72 0.0 3.0 0.00 0.00 0.00 83 1009.7
20260830234003 65 60 1.0 4.0 0.00 0.00 0.00 84 1009.4
20260830233003 64 0 0.0 0.0 0.00 0.00 0.00 84 1009.0
20260830232003 64 0 0.0 0.0 0.00 0.00 0.00 83 1009.0
20260830231003 65 0 0.0 0.0 0.00 0.00 0.00 83 1009.0
20260830230003 65 0 0.0 0.0 0.00 0.00 0.00 81 1009.4
20260830225003 66 0 0.0 0.0 0.00 0.00 0.00 80 1009.0
20260830224003 67 0 0.0 0.0 0.00 0.00 0.00 77 1009.0
20260830223003 67 0 0.0 0.0 0.00 0.00 0.00 76 1009.4
20260830222003 68 0 0.0 0.0 0.00 0.00 0.00 73 1009.4
20260830221003 69 0 0.0 0.0 0.00 0.00 0.00 69 1009.4
20260830220003 70 0 0.0 0.0 0.00 0.00 0.00 65 1009.4
20260830215003 71 223 0.0 1.0 0.00 0.00 0.00 61 1009.4
20260830214003 72 224 0.0 1.0 0.00 0.00 0.00 57 1009.4
20260830213003 73 233 0.0 3.0 0.00 0.00 0.00 55 1009.4
20260830212003 74 228 0.0 3.0 0.00 0.00 0.00 54 1009.4
20260830211214 74 219 0.0 2.0 0.00 0.00 0.00 55 1009.4
20260830210004 76 217 1.0 4.0 0.00 0.00 0.00 51 1009.4
20260830205003 76 287 1.0 2.0 0.00 0.00 0.00 50 1009.0
20260830204003 78 280 1.0 4.0 0.00 0.00 0.00 50 1009.4
20260830203004 77 231 1.0 3.0 0.00 0.00 0.00 50 1009.0
20260830202213 75 198 1.0 2.0 0.00 0.00 0.00 52 1009.0
20260830201003 76 222 1.0 2.0 0.00 0.00 0.00 50 1009.4
20260830200003 76 188 1.0 4.0 0.00 0.00 0.00 51 1009.4
20260830195003 77 257 1.0 4.0 0.00 0.00 0.00 48 1009.4
20260830194003 78 264 2.0 8.0 0.00 0.00 0.00 48 1009.7
20260830193003 78 247 1.0 4.0 0.00 0.00 0.00 48 1009.7
20260830192213 75 242 1.0 4.0 0.00 0.00 0.00 52 1009.7
20260830191004 75 214 1.0 4.0 0.00 0.00 0.00 53 1010.1
20260830190003 76 245 2.0 8.0 0.00 0.00 0.00 51 1010.1
20260830185004 77 283 2.0 7.0 0.00 0.00 0.00 51 1010.1
20260830184003 76 235 1.0 4.0 0.00 0.00 0.00 51 1010.4
20260830183003 77 212 2.0 7.0 0.00 0.00 0.00 50 1010.1
20260830182003 77 275 1.0 4.0 0.00 0.00 0.00 52 1010.1
20260830181003 75 211 2.0 7.0 0.00 0.00 0.00 53 1010.4
20260830180212 76 215 2.0 7.0 0.00 0.00 0.00 52 1010.4
20260830175003 77 241 2.0 9.0 0.00 0.00 0.00 51 1010.4
20260830174003 75 224 2.0 10.0 0.00 0.00 0.00 57 1010.4
20260830173003 74 271 2.0 7.0 0.00 0.00 0.00 57 1010.4
20260830172003 76 256 2.0 9.0 0.00 0.00 0.00 57 1010.7
20260830171214 75 208 2.0 9.0 0.00 0.00 0.00 55 1010.7
20260830170003 74 222 3.0 8.0 0.00 0.00 0.00 59 1010.7
20260830165003 73 218 2.0 8.0 0.00 0.00 0.00 58 1010.7
20260830164003 75 267 2.0 6.0 0.00 0.00 0.00 58 1011.1
20260830163003 75 235 2.0 7.0 0.00 0.00 0.00 58 1011.4
20260830162214 76 275 2.0 6.0 0.00 0.00 0.00 57 1011.1
20260830161004 74 192 1.0 6.0 0.00 0.00 0.00 58 1011.4
20260830160003 73 191 2.0 7.0 0.00 0.00 0.00 61 1011.4
20260830155003 72 215 1.0 4.0 0.00 0.00 0.00 61 1011.8
20260830154003 71 213 1.0 4.0 0.00 0.00 0.00 64 1011.8
20260830153003 71 248 1.0 7.0 0.00 0.00 0.00 61 1012.1
20260830152213 71 259 1.0 9.0 0.00 0.00 0.00 63 1012.1
20260830151213 71 248 2.0 7.0 0.00 0.00 0.00 61 1012.1
20260830150003 71 194 3.0 9.0 0.00 0.00 0.00 58 1012.4
20260830145003 72 216 3.0 18.0 0.00 0.00 0.00 55 1012.1
20260830144003 73 244 3.0 8.0 0.00 0.00 0.00 52 1012.1
20260830143003 75 248 2.0 9.0 0.00 0.00 0.00 52 1012.1
20260830142003 74 222 2.0 7.0 0.00 0.00 0.00 52 1012.4
20260830141003 73 233 2.0 9.0 0.00 0.00 0.00 51 1012.4
20260830140003 72 225 1.0 7.0 0.00 0.00 0.00 57 1012.8
20260830135003 69 206 1.0 6.0 0.00 0.00 0.00 61 1012.8
20260830134003 67 186 1.0 4.0 0.00 0.00 0.00 66 1012.8
20260830133003 67 212 2.0 6.0 0.00 0.00 0.00 62 1012.8
20260830132003 67 206 2.0 11.0 0.00 0.00 0.00 62 1012.8
20260830131003 67 202 1.0 8.0 0.00 0.00 0.00 63 1013.1
20260830130213 66 196 0.0 2.0 0.00 0.00 0.00 65 1013.1
20260830125003 65 206 1.0 4.0 0.00 0.00 0.00 65 1013.1
20260830124003 65 214 1.0 3.0 0.00 0.00 0.00 65 1013.5
20260830123214 65 208 1.0 3.0 0.00 0.00 0.00 64 1013.5
20260830122004 66 209 1.0 4.0 0.00 0.00 0.00 64 1013.5
20260830121003 67 211 1.0 4.0 0.00 0.00 0.00 61 1013.8
20260830120003 67 186 1.0 7.0 0.00 0.00 0.00 63 1013.8
20260830115003 66 197 1.0 3.0 0.00 0.00 0.00 64 1013.8
20260830114214 67 178 1.0 3.0 0.00 0.00 0.00 63 1013.5
20260830113003 66 191 0.0 3.0 0.00 0.00 0.00 68 1013.8
20260830112003 64 150 0.0 1.0 0.00 0.00 0.00 68 1013.8
20260830111003 62 162 0.0 2.0 0.00 0.00 0.00 73 1013.8
20260830110004 59 169 0.0 2.0 0.00 0.00 0.00 80 1014.1
20260830105003 55 195 0.0 1.0 0.00 0.00 0.00 93 1014.1
20260830104003 53 180 0.0 3.0 0.00 0.00 0.00 99 1014.1
20260830103003 52 0 0.0 0.0 0.00 0.00 0.00 98 1014.1
20260830102003 52 0 0.0 0.0 0.00 0.00 0.00 98 1014.5
20260830101003 51 0 0.0 0.0 0.00 0.00 0.00 98 1014.8
20260830100213 51 0 0.0 0.0 0.00 0.00 0.00 98 1014.5
20260830095003 51 0 0.0 0.0 0.00 0.00 0.00 98 1014.8
20260830094003 51 0 0.0 0.0 0.00 0.00 0.00 98 1014.8
20260830093003 51 0 0.0 0.0 0.00 0.00 0.00 97 1014.8
20260830092003 51 0 0.0 0.0 0.00 0.00 0.00 97 1014.8
20260830091003 51 0 0.0 0.0 0.00 0.00 0.00 97 1014.8
20260830090004 51 0 0.0 0.0 0.00 0.00 0.00 96 1015.2
20260830085003 51 0 0.0 0.0 0.00 0.00 0.00 96 1015.2
20260830084003 51 0 0.0 0.0 0.00 0.00 0.00 95 1015.2
20260830083003 52 0 0.0 0.0 0.00 0.00 0.00 94 1014.8
20260830082003 53 122 0.0 1.0 0.00 0.00 0.00 93 1014.8
20260830081003 53 142 1.0 1.0 0.00 0.00 0.00 92 1015.2
20260830080003 54 202 0.0 1.0 0.00 0.00 0.00 90 1014.8
20260830075003 55 202 0.0 1.0 0.00 0.00 0.00 86 1015.2
20260830074003 54 202 0.0 1.0 0.00 0.00 0.00 87 1014.8
20260830073003 55 0 0.0 0.0 0.00 0.00 0.00 89 1015.2
20260830072003 56 203 0.0 1.0 0.00 0.00 0.00 86 1015.2
20260830071212 56 206 0.0 1.0 0.00 0.00 0.00 82 1015.5
20260830070003 55 211 0.0 1.0 0.00 0.00 0.00 87 1015.5
20260830065214 55 0 0.0 0.0 0.00 0.00 0.00 87 1015.5
20260830064004 56 210 0.0 1.0 0.00 0.00 0.00 86 1015.5
20260830063214 56 210 0.0 1.0 0.00 0.00 0.00 85 1015.5
20260830062003 56 208 0.0 1.0 0.00 0.00 0.00 84 1015.8
20260830061214 56 205 0.0 2.0 0.00 0.00 0.00 84 1015.5
20260830060214 55 210 0.0 1.0 0.00 0.00 0.00 88 1015.8
20260830055003 54 210 0.0 1.0 0.00 0.00 0.00 91 1015.8
20260830054003 54 0 0.0 0.0 0.00 0.00 0.00 93 1015.8
20260830053003 54 0 0.0 0.0 0.00 0.00 0.00 94 1015.8
20260830052003 54 0 0.0 0.0 0.00 0.01 0.00 94 1015.8
20260830051003 54 0 0.0 0.0 0.00 0.01 0.00 94 1015.8
20260830050003 54 0 0.0 0.0 0.00 0.02 0.00 93 1015.8
20260830045003 54 0 0.0 0.0 0.00 0.05 0.00 92 1016.2
20260830044003 54 211 0.0 1.0 0.00 0.08 0.00 92 1016.2
20260830043003 54 0 0.0 0.0 0.00 0.09 0.00 92 1016.2
20260830042003 54 213 0.0 1.0 0.00 0.12 0.00 91 1016.2
20260830041003 54 0 0.0 0.0 0.00 0.13 0.00 91 1016.2
20260830040004 55 0 0.0 0.0 0.00 0.15 0.00 89 1016.2
20260830035003 56 0 0.0 0.0 0.00 0.16 0.00 87 1016.2
20260830034004 57 0 0.0 0.0 0.00 0.17 0.00 86 1016.2
20260830033213 57 213 0.0 1.0 0.00 0.17 0.00 84 1016.2
20260830032003 58 209 0.0 1.0 0.00 0.17 0.00 80 1016.2
20260830031003 58 221 0.0 1.0 0.00 0.17 0.00 82 1016.2
20260830030003 58 223 0.0 1.0 0.00 0.17 0.00 80 1016.2